Flag for U.S.A. Weather past 2 weeks in Des Moines, Iowa, U.S.A.

Now
72 °F

Mostly cloudy.


Feels Like: 77 °F
Forecast: 50 / 69 °F
Wind: 14 mph from South

Location: Des Moines International Airport

Current Time: Sep 23, 2014 at 4:28:55 PM

Latest Report: Sep 23, 2014 at 3:54 PM


Visibility: 10 mi

Pressure: 30.17 "Hg

Humidity: 49%

Dew point: 52 °F

Location of Des MoinesLocation

Historic Weather in Des Moines — Graph

°F

Des Moines temperature yesterday

Maximum temperature yesterday: 73 °F (at 4:54 PM)
Minimum temperature yesterday: 49 °F (at 6:54 AM)
Average temperature yesterday: 61 °F

Past Weeks' High & Low Weather Summary

 TemperatureHumidityPressure
High85 °F (Sep 20, 4:54 PM)97% (Sep 18, 7:54 AM)30.44 "Hg (Sep 18, 7:54 AM)
Low40 °F (Sep 13, 6:54 AM)42% (Sep 21, 1:54 PM)29.51 "Hg (Sep 10, 1:54 AM)
Average62 °F73%30.08 "Hg
* Reported Sep 8 2:54 PM — Sep 23 2:54 PM, Des Moines, Weather by CustomWeather, © 2014

Note: Actual official high and low records may vary slightly from our data, if they occured in-between our weather recording intervals... More about our weather records

Advertising

Des Moines weather history for previous 24 hours

 ConditionsComfort  
Time TempWeatherWind HumidityBarometerVisibility
2:54 PM
Sep 23
72 °FMostly cloudy.13 mph48%30.18 "Hg10 mi
1:54 PM70 °FMostly cloudy.13 mph51%30.21 "Hg10 mi
12:54 PM69 °FMostly cloudy.12 mph53%30.24 "Hg10 mi
11:54 AM69 °FMore clouds than sun.9 mph57%30.24 "Hg10 mi
10:54 AM65 °FMostly cloudy.9 mph63%30.26 "Hg10 mi
9:54 AM62 °FCloudy.8 mph70%30.26 "Hg10 mi
8:54 AM57 °FMore clouds than sun.6 mph78%30.26 "Hg10 mi
7:54 AM55 °FPartly cloudy.6 mph80%30.24 "Hg10 mi
6:54 AM54 °FPassing clouds.8 mph80%30.23 "Hg10 mi
5:54 AM54 °FPassing clouds.8 mph83%30.22 "Hg10 mi
4:54 AM55 °FClear.7 mph83%30.22 "Hg10 mi
3:54 AM55 °FClear.8 mph83%30.20 "Hg10 mi
2:54 AM54 °FClear.7 mph86%30.22 "Hg10 mi
1:54 AM56 °FPassing clouds.6 mph81%30.22 "Hg10 mi
12:54 AM57 °FPassing clouds.7 mph78%30.21 "Hg10 mi
11:54 PM
Sep 22
59 °FPassing clouds.7 mph75%30.22 "Hg10 mi
10:54 PM59 °FPassing clouds.8 mph75%30.22 "Hg10 mi
9:54 PM61 °FPassing clouds.7 mph70%30.22 "Hg10 mi
8:54 PM65 °FPassing clouds.7 mph61%30.22 "Hg10 mi
7:54 PM66 °FScattered clouds.6 mph59%30.22 "Hg10 mi
6:54 PM69 °FPassing clouds.6 mph51%30.20 "Hg10 mi
5:54 PM72 °FPassing clouds.7 mph46%30.21 "Hg10 mi
4:54 PM73 °FScattered clouds.7 mph43%30.21 "Hg10 mi
Weather by CustomWeather, © 2014

See weather overviewHow to use our weather pages